Tiempo cada hora Dagni

Hoy, 29 Noviembre, Domingo

Tiempo Temperatura Precipitaciones Viento Presión Humedad
00:00 +4°C° 0 mm 1 mps 695 mmHg 36%
01:00 +4°C° 0 mm 1 mps 695 mmHg 37%
02:00 +4°C° 0 mm 1 mps 695 mmHg 38%
03:00 +4°C° 0 mm 1 mps 695 mmHg 39%
04:00 +4°C° 0 mm 1 mps 695 mmHg 42%
05:00 +4°C° 0 mm 1 mps 695 mmHg 45%
06:00 +4°C° 0 mm 1 mps 695 mmHg 47%
07:00 +5°C° 0 mm 1 mps 695 mmHg 50%
08:00 +6°C° 0 mm 1 mps 696 mmHg 52%
09:00 +7°C° 0 mm 1 mps 696 mmHg 55%
10:00 +7°C° 0 mm 1 mps 696 mmHg 61%
11:00 +6°C° 0 mm 2 mps 696 mmHg 68%
12:00 +7°C° 0 mm 2 mps 695 mmHg 75%
13:00 +6°C° 0 mm 2 mps 695 mmHg 78%
14:00 +6°C° 0 mm 2 mps 695 mmHg 82%
15:00 +5°C° 0 mm 2 mps 695 mmHg 86%
16:00 +5°C° 0 mm 2 mps 695 mmHg 87%
17:00 +5°C° 0 mm 1 mps 695 mmHg 87%
18:00 +5°C° 0 mm 1 mps 696 mmHg 88%
19:00 +5°C° 0.1 mm 1 mps 696 mmHg 89%
20:00 +5°C° 0.1 mm 1 mps 696 mmHg 91%
21:00 +5°C° 0.1 mm 1 mps 696 mmHg 92%
22:00 +5°C° 0.2 mm 1 mps 696 mmHg 93%
23:00 +5°C° 0.2 mm 1 mps 695 mmHg 94%

Mañana, 30 Noviembre, Lunes

Tiempo Temperatura Precipitaciones Viento Presión Humedad
00:00 +5°C° 0.2 mm 1 mps 695 mmHg 95%
01:00 +5°C° 0.2 mm 1 mps 695 mmHg 95%
02:00 +3°C° 0.2 mm 2 mps 695 mmHg 95%
03:00 +3°C° 0.2 mm 2 mps 695 mmHg 95%
04:00 +3°C° 0.3 mm 2 mps 695 mmHg 95%
05:00 +3°C° 0.3 mm 2 mps 695 mmHg 95%
06:00 +4°C° 0.3 mm 1 mps 695 mmHg 94%
07:00 +3°C° 0.4 mm 1 mps 695 mmHg 95%
08:00 +3°C° 0.4 mm 1 mps 695 mmHg 96%
09:00 +3°C° 0.4 mm 1 mps 695 mmHg 96%
10:00 +3°C° 0.5 mm 1 mps 695 mmHg 96%
11:00 +3°C° 0.5 mm 1 mps 695 mmHg 96%
12:00 +3°C° 0.5 mm 1 mps 694 mmHg 96%
13:00 +3°C° 0.2 mm 1 mps 694 mmHg 96%
14:00 +3°C° 0.2 mm 1 mps 694 mmHg 96%
15:00 +3°C° 0.2 mm 1 mps 694 mmHg 96%
16:00 +3°C° 0.2 mm 1 mps 694 mmHg 96%
17:00 +3°C° 0.2 mm 1 mps 694 mmHg 96%
18:00 +3°C° 0.2 mm 1 mps 694 mmHg 97%
19:00 +3°C° 0.3 mm 1 mps 694 mmHg 97%
20:00 +2°C° 0.3 mm 1 mps 694 mmHg 96%
21:00 +2°C° 0.3 mm 1 mps 694 mmHg 96%
22:00 +2°C° 0.4 mm 1 mps 694 mmHg 95%
23:00 +2°C° 0.4 mm 1 mps 694 mmHg 94%

Pasado mañana, 1 Diciembre, Martes

Tiempo Temperatura Precipitaciones Viento Presión Humedad
00:00 +2°C° 0.4 mm 1 mps 694 mmHg 93%
01:00 +2°C° 0.2 mm 1 mps 693 mmHg 92%
02:00 +2°C° 0.2 mm 1 mps 693 mmHg 90%
03:00 +1°C° 0.2 mm 1 mps 693 mmHg 89%
04:00 +1°C° 0.2 mm 1 mps 693 mmHg 88%
05:00 +1°C° 0.2 mm 1 mps 693 mmHg 88%
06:00 +1°C° 0.2 mm 1 mps 692 mmHg 87%
07:00 +2°C° 0.1 mm 1 mps 693 mmHg 87%
08:00 +2°C° 0.1 mm 1 mps 693 mmHg 86%
09:00 +2°C° 0.1 mm 0 mps 693 mmHg 86%
10:00 +3°C° 0 mm 1 mps 693 mmHg 88%
11:00 +4°C° 0 mm 1 mps 692 mmHg 90%
12:00 +4°C° 0 mm 1 mps 692 mmHg 92%
13:00 +4°C° 0 mm 1 mps 692 mmHg 93%
14:00 +4°C° 0 mm 1 mps 692 mmHg 94%
15:00 +4°C° 0 mm 1 mps 692 mmHg 95%
16:00 +3°C° 0 mm 1 mps 692 mmHg 95%
17:00 +2°C° 0 mm 0 mps 692 mmHg 95%
18:00 +2°C° 0 mm 0 mps 693 mmHg 95%
19:00 +2°C° 0 mm 0 mps 693 mmHg 93%
20:00 +1°C° 0 mm 0 mps 693 mmHg 91%
21:00 +1°C° 0 mm 0 mps 693 mmHg 89%
22:00 +2°C° 0 mm 1 mps 693 mmHg 87%
23:00 +2°C° 0 mm 1 mps 693 mmHg 85%

2 Diciembre, Miércoles

Tiempo Temperatura Precipitaciones Viento Presión Humedad
00:00 +1°C° 0 mm 1 mps 693 mmHg 83%
01:00 +2°C° 0 mm 1 mps 693 mmHg 80%
02:00 +2°C° 0 mm 1 mps 693 mmHg 77%
03:00 +2°C° 0 mm 1 mps 693 mmHg 75%
04:00 +2°C° 0 mm 1 mps 693 mmHg 73%
05:00 +2°C° 0 mm 1 mps 693 mmHg 72%
06:00 +1°C° 0 mm 1 mps 694 mmHg 70%
07:00 +2°C° 0.1 mm 1 mps 694 mmHg 69%
08:00 +3°C° 0.1 mm 1 mps 694 mmHg 68%
09:00 +3°C° 0.1 mm 0 mps 695 mmHg 68%
10:00 +4°C° 0 mm 1 mps 695 mmHg 71%
11:00 +5°C° 0 mm 1 mps 695 mmHg 75%
12:00 +5°C° 0 mm 1 mps 695 mmHg 79%
13:00 +5°C° 0 mm 1 mps 695 mmHg 83%
14:00 +5°C° 0 mm 1 mps 694 mmHg 87%
15:00 +5°C° 0 mm 1 mps 694 mmHg 91%
16:00 +4°C° 0.1 mm 1 mps 695 mmHg 91%
17:00 +3°C° 0.1 mm 0 mps 695 mmHg 92%
18:00 +2°C° 0.1 mm 0 mps 695 mmHg 93%
19:00 +2°C° 0.1 mm 0 mps 695 mmHg 91%
20:00 +2°C° 0.1 mm 0 mps 696 mmHg 89%
21:00 +2°C° 0.1 mm 0 mps 696 mmHg 87%
22:00 +2°C° 0.1 mm 0 mps 696 mmHg 85%
23:00 +2°C° 0.1 mm 1 mps 696 mmHg 83%

3 Diciembre, Jueves

Tiempo Temperatura Precipitaciones Viento Presión Humedad
00:00 +2°C° 0.1 mm 1 mps 696 mmHg 81%
01:00 +2°C° 0.2 mm 1 mps 696 mmHg 80%
02:00 +2°C° 0.2 mm 1 mps 696 mmHg 80%
03:00 +2°C° 0.2 mm 1 mps 696 mmHg 79%
04:00 +2°C° 0.2 mm 1 mps 696 mmHg 79%
05:00 +2°C° 0.2 mm 1 mps 696 mmHg 78%
06:00 +2°C° 0.2 mm 1 mps 696 mmHg 78%
07:00 +2°C° 0.1 mm 1 mps 697 mmHg 79%
08:00 +2°C° 0.1 mm 0 mps 697 mmHg 79%
09:00 +2°C° 0.1 mm 0 mps 697 mmHg 80%
10:00 +4°C° 0.1 mm 1 mps 697 mmHg 83%
11:00 +4°C° 0.1 mm 1 mps 697 mmHg 87%
12:00 +4°C° 0.1 mm 1 mps 697 mmHg 90%
13:00 +4°C° 0.1 mm 1 mps 697 mmHg 92%
14:00 +4°C° 0.1 mm 1 mps 697 mmHg 94%
15:00 +4°C° 0.1 mm 1 mps 697 mmHg 96%
16:00 +3°C° 0.1 mm 1 mps 697 mmHg 96%
17:00 +3°C° 0.1 mm 1 mps 697 mmHg 96%
18:00 +3°C° 0.1 mm 1 mps 697 mmHg 95%
19:00 +3°C° 0.1 mm 1 mps 697 mmHg 94%
20:00 +3°C° 0.1 mm 1 mps 697 mmHg 93%
21:00 +2°C° 0.1 mm 1 mps 697 mmHg 91%
22:00 +2°C° 0 mm 1 mps 697 mmHg 89%
23:00 +2°C° 0 mm 1 mps 697 mmHg 87%

4 Diciembre, Viernes

Tiempo Temperatura Precipitaciones Viento Presión Humedad
00:00 +2°C° 0 mm 1 mps 697 mmHg 85%
01:00 +2°C° 0 mm 1 mps 697 mmHg 85%
02:00 +2°C° 0 mm 1 mps 696 mmHg 84%
03:00 +2°C° 0 mm 1 mps 696 mmHg 84%
04:00 +2°C° 0 mm 1 mps 696 mmHg 84%
05:00 +2°C° 0 mm 1 mps 696 mmHg 84%
06:00 +2°C° 0 mm 1 mps 696 mmHg 83%
07:00 +2°C° 0.1 mm 1 mps 696 mmHg 83%
08:00 +3°C° 0.1 mm 1 mps 696 mmHg 82%
09:00 +3°C° 0.1 mm 1 mps 697 mmHg 82%
10:00 +3°C° 0.1 mm 2 mps 696 mmHg 84%
11:00 +3°C° 0.1 mm 2 mps 696 mmHg 86%
12:00 +3°C° 0.1 mm 2 mps 696 mmHg 88%
13:00 +3°C° 0.1 mm 2 mps 695 mmHg 90%
14:00 +3°C° 0.1 mm 2 mps 695 mmHg 93%
15:00 +3°C° 0.1 mm 2 mps 695 mmHg 95%
16:00 +2°C° 0 mm 2 mps 695 mmHg 95%
17:00 +2°C° 0 mm 2 mps 695 mmHg 95%
18:00 +2°C° 0 mm 2 mps 695 mmHg 95%
19:00 +2°C° 0 mm 2 mps 695 mmHg 93%
20:00 +1°C° 0 mm 2 mps 695 mmHg 91%
21:00 +2°C° 0 mm 1 mps 695 mmHg 90%
22:00 +2°C° 0.1 mm 1 mps 695 mmHg 87%
23:00 +2°C° 0.1 mm 1 mps 695 mmHg 85%
Mostrar más

Necesitamos Su Consentimiento

Meteoprog y nuestros Proveedores de Servicios pueden almacenar y acceder a sus datos personales como cookies, identificadores de dispositivo u otras tecnologías similares de su dispositivo y procesar dichos datos para personalizar contenido y anuncios, además de ofrecer funciones de redes sociales y analizar el tráfico.

  • Almacenar y/o acceder a información en su dispositivo

    Se puede almacenar o acceder a cookies, identificadores de dispositivo u otra información de su dispositivo para los fines anteriormente indicados.

  • Anuncios y contenido personalizados, medición de anuncios y contenido, percepciones del público, y desarrollo de productos

    Los anuncios y el contenido pueden personalizarse en base a su perfil. Se pueden añadir más datos para personalizar mejor los anuncios y contenidos. Se puede medir el rendimiento de los anuncios y contenidos. Se puede obtener la percepción sobre el público que ha visto los anuncios y contenidos. Dichos datos pueden usarse para desarrollar o mejorar la experiencia del usuario, sistemas y software.

Al hacer clic en ‘Estoy De Acuerdo’ usted permitirá el uso de las cookies, identificadores de dispositivo, balizas web u otras tecnologías similares indicadas. Su configuración puede cambiarse desde el navegador de su dispositivo.

Para ciertos fines, los intereses legítimos pueden ser considerados por encima del consentimiento. Puede leer más sobre ello en nuestra Política de Privacidad y Cookies.